CAPE
0 0 0 0 0 0 0 0 0 0 0 0 0 0 0 0 0 0 0 0 0 0 0 0 0 0 0 0 0 0 0 0 0 0 0 0 0 0 0 0 0 0 0 0
0 0 0 0 0 0 0 2 2 2 1 0 0 0 0 0 0 0 0 0 0 0 0 0 0 0 0 0 0 0 0 0 0 0 0 0 0 0 0 0 0 0 0 0
0 0 0 0 0 0 0 0 0 0 0 0 0 0 0 0 0 0 0 0 0 0 0 0 0 0 0 0 0 0 0 0 0 0 0 0 0 0 0 0 0 0 0 0
0 0 0 0 0 0 0 0 0 0 0 0 0 0 0 0 0 0 0 0 0 0 0 0 0 0 0 0 0 0 0 0 0 0 0 0 0 0 0 0 0 0 0 0
0 0 0 4 0 0 0 0 0 0 0 0 1 0 0 0 0 0 0 0 0 0 0 0 0 0 0 0 0 0 0 0 0 0 0 0 0 0 0 0 0 1 2 2
0 0 0 0 0 0 0 0 0 0 0 0 1 1 1 0 0 0 0 0 0 0 0 0 0 0 0 0 0 0 0 0 0 0 1 0 1 2 1 2 0 1 2 1
0 0 0 0 0 0 0 0 0 0 0 1 1 0 0 0 0 0 0 0 0 0 0 0 0 0 0 0 0 0 0 0 0 3 1 2 3 2 0 1 0 1 1 1
2 3 0 0 0 0 1 0 2 1 0 0 0 0 0 1 1 0 0 0 0 0 0 0 0 0 0 0 0 0 0 2 4 3 3 4 1 0 1 0 0 1 0 0
3 2 0 1 0 1 0 0 0 0 0 0 0 0 0 0 0 0 0 0 0 0 0 0 0 0 0 0 1 2 0 5 3 3 2 3 2 2 1 1 0 0 0 0
3 0 0 0 0 0 0 0 0 0 0 0 0 0 1 2 0 0 0 0 0 0 0 0 0 0 0 0 0 0 0 0 1 2 2 0 0 0 0 0 0 0 0 0
0 3 0 0 0 0 0 0 0 0 0 1 1 0 0 0 0 0 0 0 0 0 0 0 0 0 0 0 0 0 0 0 1 0 0 0 0 0 0 0 0 0 0 1
3 0 0 0 0 0 0 0 0 0 0 0 0 0 0 0 0 0 0 0 0 0 0 0 0 0 0 0 0 0 0 0 0 1 0 0 0 0 0 1 5 14 10 7
0 0 0 0 0 0 0 0 0 0 0 0 0 0 0 0 0 0 0 0 0 0 0 0 0 0 0 0 0 0 0 0 0 0 0 0 0 0 0 0 1 1 2 7
0 0 0 0 0 0 0 0 0 0 0 0 0 0 0 0 0 0 0 0 0 0 0 0 0 0 0 0 0 0 0 1 1 0 0 0 0 0 2 0 0 0 0 0
0 0 0 0 0 0 0 0 0 0 0 0 0 0 0 0 0 0 0 0 0 0 0 0 0 0 0 0 0 0 0 0 0 0 2 2 0 0 0 0 0 0 0 0
0 0 0 0 0 0 0 0 0 0 0 0 0 0 0 0 0 0 0 0 0 0 0 0 0 0 0 0 0 0 0 0 2 0 0 0 0 0 0 0 0 0 0 0
0 0 0 0 0 0 0 0 0 0 0 0 0 0 0 0 0 0 0 0 0 0 0 0 0 0 0 0 0 0 0 0 1 0 0 0 0 0 0 0 0 0 0 0
0 0 0 0 0 0 0 0 0 0 0 0 0 0 0 0 0 0 0 0 0 0 0 0 0 0 0 0 0 0 0 0 0 0 0 0 0 0 0 0 0 0 0 0
0 0 0 0 0 0 0 0 0 0 0 0 0 0 0 0 0 0 0 0 0 0 0 0 0 0 0 0 1 0 0 0 0 0 0 0 0 0 0 0 0 0 0 0
0 0 0 0 0 0 0 0 0 0 0 0 0 0 0 0 0 0 0 0 0 0 0 0 0 0 0 0 0 0 0 0 0 0 0 0 0 0 0 0 0 0 0 0
0 0 0 1 0 0 0 0 0 0 0 0 0 0 0 0 0 0 0 0 0 0 0 0 0 0 0 0 0 0 0 0 0 0 0 0 0 0 0 0 0 0 0 0
0 0 0 0 0 0 0 0 0 0 0 0 0 0 0 0 0 0 0 0 0 0 0 0 0 0 3 12 0 0 0 0 0 0 0 0 0 0 0 0 0 0 0 1
0 0 0 0 0 0 0 0 0 0 0 0 0 0 0 0 0 0 0 0 0 0 0 0 1 2 5 3 0 0 0 0 0 0 0 0 0 0 0 0 0 1 0 0
0 0 0 0 0 0 0 0 0 0 0 0 0 0 0 0 0 0 0 0 0 0 1 0 0 5 10 0 0 0 0 0 0 0 0 0 0 0 0 0 0 0 1 0
0 0 0 0 0 0 0 0 0 0 0 0 0 0 0 0 0 0 0 0 0 0 0 0 0 2 0 0 0 0 0 0 0 0 0 0 0 0 0 0 0 1 0 0
0 0 0 0 0 0 0 0 0 0 0 0 0 0 0 0 0 0 0 0 0 0 0 0 0 0 0 0 0 0 0 0 0 0 0 0 0 0 0 0 0 0 0 0
0 0 0 0 0 0 0 0 0 0 0 0 0 0 0 0 0 0 0 0 0 0 0 0 0 0 0 0 0 0 0 0 0 0 0 0 0 0 0 0 1 1 0 0
CIN
0 0 0 0 -1 0 0 0 0 0 -1 0 0 0 0 0 0 0 0 0 0 0 0 0 0 0 0 0 0 0 0 0 0 0 0 0 0 0 0 0 0 0 0 0
0 0 0 0 0 0 0 0 0 0 0 0 0 0 0 0 0 0 0 0 0 0 0 0 0 0 0 0 0 0 0 0 0 0 0 0 0 0 0 0 0 0 0 0
0 0 0 0 0 0 0 0 0 0 0 0 0 0 0 0 0 0 0 0 0 0 0 0 0 0 0 0 0 0 0 0 0 0 0 0 0 0 0 0 0 0 0 0
0 0 0 0 0 0 0 0 0 0 0 0 0 0 0 0 0 0 0 0 0 0 0 0 0 0 0 0 0 0 0 0 0 0 0 0 0 0 0 0 0 0 0 0
0 -4 0 -2 0 0 0 0 0 0 0 0 0 0 0 0 0 0 0 0 0 0 0 0 0 0 0 0 0 0 0 0 0 0 0 0 -1 0 0 0 0 0 0 0
0 0 -2 0 0 0 0 0 0 0 0 0 0 0 0 0 0 0 0 0 0 0 0 0 0 0 0 0 0 0 0 0 0 0 -1 -1 -1 -1 -1 -1 -1 0 -1 -1
0 -6 -4 0 0 0 0 -1 0 0 0 -1 -2 0 0 -4 0 0 0 0 0 0 0 0 0 0 0 0 0 0 0 0 -1 -1 -2 -2 -1 -2 -1 -1 -1 -2 -2 -2
-5 -4 -1 0 0 0 0 0 0 -3 0 0 0 0 0 -23 -20 0 0 0 0 0 0 0 0 0 0 0 0 0 0 -1 -2 -2 -1 -1 -2 0 -2 -3 -2 -2 -1 -2
-7 -5 0 0 0 0 0 0 0 0 0 0 0 0 -3 0 -4 0 0 0 0 0 0 0 0 0 0 0 0 -1 0 0 -1 -2 -1 -1 -2 -2 -2 -3 0 0 0 0
-6 -1 0 0 0 0 0 0 0 0 0 0 0 0 0 0 0 0 0 0 0 0 0 0 0 0 -1 0 0 0 0 -1 -2 -2 -2 0 -1 -2 0 0 0 0 0 -1
0 -1 0 0 0 0 0 0 0 0 0 0 0 0 0 0 0 0 0 0 0 0 0 0 0 0 0 0 0 0 0 0 -3 0 0 0 0 0 0 0 0 0 -2 -1
0 0 0 0 0 0 0 0 0 0 0 0 0 0 0 0 0 0 0 0 0 0 0 0 0 0 0 0 0 0 0 0 0 -1 0 0 0 0 0 -3 -2 -1 -1 -2
0 0 0 0 0 0 0 0 0 0 0 0 0 0 0 0 0 0 0 0 0 0 0 0 0 0 0 0 0 0 0 0 0 -1 0 0 0 0 0 0 -2 -3 -3 -2
0 0 0 0 0 0 0 0 0 0 0 0 0 0 0 0 0 0 0 0 0 0 0 0 0 0 0 0 0 0 0 -1 -1 0 0 0 0 -1 0 0 0 0 0 -2
0 0 0 0 0 0 0 0 0 0 0 0 0 0 0 0 0 0 0 0 0 0 0 0 0 0 0 0 0 0 0 0 0 0 -1 -2 0 0 0 0 0 0 0 0
0 0 0 0 0 0 0 0 0 0 0 0 0 0 0 0 0 0 0 0 0 0 0 0 0 0 0 0 0 0 0 -1 -1 -1 0 0 0 0 0 0 0 0 0 0
0 0 0 0 0 0 0 0 0 0 0 0 0 0 0 0 0 0 0 0 0 0 0 0 0 0 0 0 0 0 0 0 -2 0 -1 -1 -1 0 0 0 0 0 0 0
0 0 0 0 0 0 0 0 0 0 0 0 0 0 0 0 0 0 0 0 0 0 0 0 0 0 0 0 0 0 0 0 0 0 0 0 -1 0 0 0 0 0 0 0
0 0 0 0 0 0 0 0 0 0 0 0 0 0 0 0 0 0 0 0 0 0 0 0 0 0 0 0 -2 -1 0 0 0 0 0 0 0 0 0 0 0 0 0 0
0 0 0 0 0 0 0 0 0 0 0 0 0 0 0 0 0 0 0 0 0 0 0 0 0 0 0 0 -1 0 0 0 0 0 0 0 0 0 0 0 0 0 0 0
0 0 0 0 0 0 0 0 0 0 0 0 0 0 0 0 0 0 0 0 0 0 -5 -3 0 0 0 0 0 0 0 0 0 0 0 0 0 0 0 0 0 0 0 0
0 0 0 0 0 0 0 0 0 0 0 0 0 0 0 0 0 0 0 0 0 -1 -3 -1 0 -1 -2 -2 0 0 0 0 0 0 0 0 0 0 0 0 0 0 0 0
0 0 0 0 0 0 0 0 0 0 0 0 0 0 0 0 0 0 0 0 0 0 -5 0 -2 -3 -1 -2 0 0 0 0 0 0 0 0 0 0 0 0 0 0 0 0
0 0 0 0 0 0 0 0 0 0 0 0 0 0 0 0 0 0 0 0 0 0 -3 -3 -2 -2 -1 0 0 0 0 0 0 0 0 0 0 0 0 0 0 0 0 0
0 0 0 0 0 0 0 0 0 0 0 0 0 0 0 0 0 0 0 0 0 -1 0 0 -1 -1 0 0 0 0 0 0 0 0 0 0 0 0 0 0 0 0 0 0
0 0 0 0 0 0 0 0 0 0 0 0 0 0 0 0 0 0 0 0 0 0 0 0 0 0 0 0 0 0 0 0 0 0 0 0 0 0 0 0 0 0 0 0
0 0 0 0 0 0 0 0 0 0 0 0 0 0 0 0 0 0 0 0 0 0 0 0 0 0 0 0 0 0 0 0 0 0 0 0 0 0 0 0 0 0 0 0
Wind_Speed
34 35 38 38 38 35 34 35 40 43 40 39 41 43 34 31 32 33 32 30 28 26 28 29 31 34 34 34 35 36 38 39 41 41 42 42 42 42 41 41 41 41 41 41
43 38 38 40 36 36 36 36 34 37 41 38 32 29 35 34 34 34 32 30 28 29 31 34 34 35 36 38 39 40 42 43 43 43 42 41 41 41 41 41 41 41 41 41
47 39 41 46 40 32 31 28 32 39 35 32 35 36 38 39 36 33 31 29 30 31 33 34 37 38 40 41 40 41 42 42 42 42 42 42 41 42 42 43 42 42 42 41
45 40 50 34 27 30 35 36 33 34 36 36 37 38 38 35 32 29 29 30 32 34 36 37 37 38 39 39 40 41 42 43 42 42 42 42 42 43 44 43 43 42 41 40
40 40 42 44 34 34 37 40 35 35 36 39 38 38 37 30 29 30 31 32 33 33 35 36 38 39 40 42 42 42 44 43 42 42 44 44 45 44 43 42 41 41 40 40
36 45 48 35 32 31 34 44 31 36 39 43 42 49 40 33 30 29 29 30 34 36 37 38 39 40 42 44 44 44 44 44 44 43 43 44 44 43 41 40 41 40 39 36
38 43 41 33 33 34 42 38 38 41 44 45 41 36 32 30 29 28 28 33 34 37 40 40 41 43 46 45 45 45 44 44 43 43 43 43 42 40 40 40 38 36 34 32
38 44 49 31 33 39 37 38 41 39 37 36 34 32 31 32 32 32 34 36 39 44 46 45 44 45 46 46 44 43 43 44 44 43 43 40 38 38 38 36 33 31 29 30
34 39 33 30 30 29 32 33 33 33 33 31 32 32 33 34 34 35 37 40 44 45 47 47 46 44 46 44 44 43 44 43 42 40 39 36 36 35 32 29 28 28 28 29
37 27 29 25 26 28 28 29 29 29 31 31 32 33 35 36 37 37 40 43 45 46 47 47 44 43 42 44 43 41 43 40 38 37 36 33 32 30 29 29 29 29 29 29
33 28 24 23 26 27 28 29 30 32 33 33 33 34 35 37 37 39 42 44 43 44 44 45 45 44 42 40 39 40 38 37 35 33 32 32 30 29 28 27 25 23 19 20
27 24 23 24 25 27 31 32 33 34 35 33 33 34 36 37 38 39 41 41 42 42 42 44 44 41 37 35 36 36 34 32 32 32 30 29 28 26 22 14 12 17 14 12
21 20 20 24 25 24 31 33 34 34 32 33 32 33 34 35 36 38 37 38 39 40 41 41 38 36 33 34 32 29 28 29 29 29 27 24 15 8 12 20 18 12 8 11
18 21 23 22 26 29 31 32 31 30 30 30 30 31 31 32 34 35 36 36 37 38 38 34 33 32 31 29 28 26 25 26 25 22 16 8 9 8 8 13 12 15 16 27
19 22 22 24 28 31 31 32 33 32 30 30 28 29 29 30 31 32 32 33 34 35 32 31 31 30 28 26 25 25 24 22 16 14 16 9 7 8 10 11 12 15 16 19
22 23 26 31 35 35 34 31 29 29 29 29 29 28 28 28 28 30 30 33 35 36 32 30 28 27 25 25 23 22 22 15 15 18 15 6 7 10 10 9 11 11 13 14
26 31 36 37 36 35 31 28 25 26 28 29 29 29 30 30 29 30 32 33 32 32 29 26 25 26 25 22 25 20 17 15 13 8 9 11 10 9 10 9 9 10 11 13
27 33 36 36 39 37 33 29 27 27 28 29 31 32 33 32 31 31 32 34 33 33 30 29 29 26 26 23 22 19 18 25 14 6 7 9 9 9 11 11 11 12 14 14
36 41 41 39 37 35 34 33 31 29 28 29 31 33 33 32 32 31 31 33 33 34 34 33 31 28 24 23 22 21 23 27 7 6 5 9 11 12 11 10 11 11 12 13
41 40 39 36 33 34 37 35 34 34 32 31 29 30 33 34 34 32 31 31 30 31 33 31 28 26 21 21 17 21 24 21 10 6 7 6 5 17 19 19 19 16 19 21
41 39 38 37 36 34 34 36 38 38 37 35 34 32 32 35 34 33 33 34 34 33 34 35 29 26 23 9 19 22 22 22 7 4 8 11 14 21 19 19 20 21 24 24
39 38 38 38 37 36 35 34 35 37 38 38 36 35 34 36 36 33 31 33 35 37 35 34 33 24 20 34 21 27 24 27 22 4 5 11 17 19 18 20 21 20 20 22
38 38 38 38 37 37 36 35 36 38 39 37 37 36 35 36 36 36 38 35 37 38 39 38 39 39 36 26 24 26 27 30 27 14 3 5 14 15 18 20 22 25 23 22
37 37 37 36 36 37 37 38 38 38 36 37 36 36 37 39 36 33 36 40 43 43 40 40 40 38 37 28 23 22 28 31 29 20 7 4 15 22 19 18 22 26 26 25
36 37 36 36 36 36 37 38 39 38 39 38 38 38 38 37 37 40 41 42 42 42 40 40 39 37 32 22 25 22 28 31 29 23 15 3 21 23 21 23 24 25 27 27
36 37 39 38 37 37 38 39 41 41 41 42 41 40 39 38 40 43 42 43 42 42 40 37 36 36 33 25 28 23 31 30 29 26 19 13 11 19 19 18 25 29 29 29
37 38 39 39 38 39 41 43 43 43 43 43 44 43 42 42 41 43 43 42 41 40 38 36 36 35 34 27 29 28 25 29 29 28 25 21 18 16 14 14 12 22 32 32
Wind_Direction
305 307 310 308 308 308 303 301 304 309 309 314 317 318 323 327 327 325 326 327 325 322 321 320 319 318 317 317 318 317 315 314 313 313 313 312 312 312 311 310 309 307 306 304
309 311 308 307 309 307 301 302 300 303 307 313 322 326 325 326 326 324 324 325 325 324 322 320 319 318 318 317 316 315 314 313 314 314 314 313 313 313 312 311 309 307 305 303
310 318 317 312 311 309 316 315 314 313 319 326 324 323 323 324 323 321 322 323 323 322 321 319 317 317 316 317 317 317 316 316 315 315 314 314 314 313 312 311 309 307 305 303
310 316 310 322 333 326 319 317 316 315 319 323 322 322 321 322 321 321 321 322 322 322 322 323 323 323 323 322 320 319 318 318 318 317 315 315 314 313 313 312 310 309 307 305
308 307 308 315 325 325 323 318 324 324 324 323 324 323 323 327 325 322 322 323 325 327 328 328 327 326 324 322 321 320 319 319 319 317 316 316 315 315 315 313 312 310 308 307
311 309 309 319 325 329 325 313 327 329 327 326 325 317 322 328 327 328 328 330 329 329 328 328 328 327 325 323 321 320 321 320 319 319 317 316 316 315 315 315 313 312 310 308
306 307 309 319 325 327 316 319 328 327 323 322 321 324 326 329 329 330 329 331 333 332 330 329 329 327 324 323 322 322 321 321 320 320 318 317 316 317 316 316 315 313 312 311
310 308 307 326 323 319 320 324 325 328 331 331 332 331 329 328 327 328 328 329 329 328 327 328 328 327 325 324 324 324 323 322 321 321 320 320 319 319 319 318 317 316 316 314
310 310 325 329 328 331 333 333 334 335 336 334 332 330 329 328 327 327 327 326 327 327 327 327 328 329 326 327 327 326 325 325 325 325 324 323 322 322 322 322 320 319 318 318
312 324 329 334 336 337 338 339 339 337 336 334 331 330 329 328 327 327 326 327 327 327 327 328 331 332 330 329 329 329 328 329 329 329 329 328 328 327 326 324 323 321 320 319
312 318 330 339 340 341 342 342 340 339 338 336 334 332 331 330 330 329 329 329 330 330 331 331 333 333 333 333 333 332 333 333 334 335 335 333 332 331 329 327 326 326 325 323
323 332 334 335 340 343 341 342 342 340 338 339 338 336 334 333 332 332 332 334 334 335 335 335 336 337 339 340 338 337 339 341 341 340 340 339 339 340 340 334 325 329 319 285
334 340 342 340 342 347 342 342 342 341 341 340 341 340 339 337 338 337 338 339 338 338 338 339 340 341 343 343 344 346 347 347 347 347 348 351 354 316 280 347 346 339 319 266
349 347 341 344 341 341 342 343 343 344 345 344 344 344 343 341 341 342 342 342 342 341 342 343 344 344 347 349 350 351 352 351 353 356 358 326 335 313 309 275 276 269 265 276
344 344 345 344 340 339 342 344 342 344 346 346 348 347 346 345 344 344 345 345 346 345 346 347 347 348 352 354 354 355 355 358 2 359 1 341 327 286 279 274 269 268 271 271
337 342 342 338 334 335 340 344 345 345 346 347 348 349 348 346 345 345 346 347 347 347 348 349 350 353 355 355 356 357 360 3 5 5 4 323 292 279 278 277 273 270 270 270
334 332 332 333 335 336 339 343 344 343 343 343 344 345 345 345 346 347 347 348 349 349 350 351 352 354 355 357 357 1 3 6 351 350 280 277 279 280 278 275 272 271 272 272
333 331 331 331 330 332 335 340 341 341 340 340 340 340 341 343 344 346 347 348 350 351 353 353 352 354 354 357 359 2 4 359 7 297 291 280 280 278 273 273 271 271 276 276
328 324 326 329 329 329 332 335 338 338 338 338 338 337 338 340 342 344 347 348 350 351 351 350 351 353 356 358 0 3 2 358 347 292 327 281 276 272 272 275 276 272 275 277
326 328 330 332 336 331 327 330 333 334 336 337 337 336 335 336 339 342 345 346 350 350 349 351 352 353 357 358 360 3 0 4 270 283 6 357 360 276 280 281 284 279 284 287
328 329 330 331 332 334 332 329 329 330 332 334 335 335 335 333 336 338 340 342 346 348 348 344 349 352 355 334 3 1 1 2 268 302 15 18 277 284 281 281 283 286 292 292
330 330 330 330 331 331 333 334 333 332 331 332 334 335 335 332 332 335 338 339 342 341 344 343 342 351 353 325 357 350 357 351 281 272 4 21 276 280 280 283 283 284 285 290
329 329 329 329 329 329 331 333 332 331 331 333 334 334 333 331 330 331 329 338 337 337 336 333 322 314 297 347 350 350 349 334 286 262 291 18 270 274 279 283 284 288 286 288
330 330 329 330 329 329 328 329 330 331 332 333 334 333 331 327 327 331 327 327 324 324 327 321 310 304 305 339 348 355 342 320 293 270 255 272 271 285 280 280 286 292 291 288
331 332 332 331 330 329 329 329 329 330 330 332 332 331 328 327 323 321 318 320 319 320 324 315 308 308 329 348 340 351 337 304 294 276 260 250 282 289 286 289 290 292 293 294
329 328 328 328 327 328 328 328 326 327 327 326 327 327 326 325 320 315 313 312 313 312 317 317 316 313 322 341 326 344 319 301 300 288 268 262 269 281 283 285 292 300 299 296
326 325 325 326 327 327 326 324 323 322 323 323 320 320 319 320 319 313 310 309 310 311 313 313 310 309 308 332 321 326 339 314 306 298 282 276 277 278 279 283 291 287 300 297